Content
SEND FEEDBACK

Daily
Averages
Monthly
Summary
United States of America

ALPINE MEADOWS, CALIFORNIA


Home > North America > United States > California
Elevation: 6230 feet     Latitude: 39 12N     Longitude: 120 14W

WEATHER
 
SELECT A DAY
Number of Records: 290,329;   Date Range: 1/1/95 - 12/18/14
 
SHARE

PRINT THIS DATA

[ ← Previous Day ]
WEATHER ALMANAC - NOVEMBER 22, 2013
[ Next Day → ]
[ °C ]   °F
Weather ElementAverageHighLow
Temperature22.9 °F37.4 °F (12:45 pm)12.2 °F (6:45 am)
Dewpoint10.4 °F14 °F (12:35 am)6.8 °F (11:50 am)
Humidity62 %86 % (12:55 am)28 % (12:45 pm)
Barometer30.22 in30.30 in (8:55 am)30.16 in (11:55 pm)
Wind Speed6 mph13.8 mph (11:50 am)
Wind Gust26.5 mph (4:55 pm)
Weather ElementAverage
Visibility10 mi
Wind DirectionSSE (152.9 °)

Weather ElementTotal
Precipitation---
Heating Degree Days40.2 (Base 65)
Averaged from 49 records on November 22, 2013
WEATHER CONDITIONS BREAKOUT
WIND DIRECTION BREAKOUT
WEATHER BY HOUR - NOVEMBER 22, 2013
[ °C ]   °F
Local TimeTemperatureDewpointHumidityBarometerVisibilityWind DirectionWind SpeedGust SpeedPrecipitationEventsConditions
12:35 AM19.4 °F14.0 °F80 %30.23 in10.0 miSSE (150°)4.6 mphClear
12:55 AM17.6 °F14.0 °F86 %30.23 in10.0 miSouth (180°)5.8 mphClear
1:15 AM17.6 °F12.2 °F79 %30.23 in10.0 miSE (140°)3.5 mphClear
1:35 AM17.6 °F14.0 °F86 %30.23 in10.0 miESE (120°)10.4 mphClear
1:55 AM19.4 °F12.2 °F74 %30.24 in10.0 miCalmClear
2:15 AM17.6 °F10.4 °F73 %30.24 in10.0 miEast (100°)5.8 mphClear
2:35 AM17.6 °F10.4 °F73 %30.24 in10.0 miSE (140°)5.8 mphClear
2:55 AM17.6 °F10.4 °F73 %30.25 in10.0 miESE (120°)4.6 mphClear
3:15 AM15.8 °F10.4 °F79 %30.24 in10.0 miSSE (150°)6.9 mphClear
3:35 AM15.8 °F10.4 °F79 %30.24 in10.0 miSE (140°)4.6 mphClear
3:55 AM15.8 °F10.4 °F79 %30.24 in10.0 miSE (140°)5.8 mphClear
4:15 AM14.0 °F10.4 °F86 %30.24 in10.0 miSE (140°)4.6 mphClear
4:35 AM14.0 °F10.4 °F86 %30.24 in10.0 miSE (140°)9.2 mphClear
4:55 AM15.8 °F10.4 °F79 %30.25 in10.0 miSSE (150°)6.9 mphClear
5:15 AM15.8 °F10.4 °F79 %30.25 in10.0 miESE (120°)4.6 mphClear
5:35 AM14.0 °F8.6 °F79 %30.25 in10.0 miCalmClear
6:45 AM12.2 °F8.6 °F85 %30.27 in10.0 miSSW (200°)5.8 mphPartly Cloudy
7:55 AM17.6 °F12.2 °F79 %30.29 in10.0 miESE (110°)4.6 mphScattered Clouds
8:55 AM24.8 °F14.0 °F64 %30.30 in10.0 miCalmPartly Cloudy
9:45 AM28.4 °F10.4 °F47 %30.30 in10.0 miCalmClear
10:50 AM32.0 °F8.6 °F38 %30.27 in10.0 miCalmClear
11:50 AM35.6 °F6.8 °F30 %30.24 in10.0 miENE (60°)13.8 mph21.9 mphClear
12:45 PM37.4 °F6.8 °F28 %30.22 in10.0 miNE (50°)10.4 mph19.6 mphClear
1:45 PM37.4 °F8.6 °F30 %30.20 in10.0 miNNW (340°)6.9 mphClear
2:55 PM35.6 °F8.6 °F33 %30.18 in10.0 miNorth (360°)11.5 mph19.6 mphClear
3:45 PM33.8 °F8.6 °F35 %30.20 in10.0 miNW (320°)12.7 mph23.0 mphClear
4:45 PM32.0 °F8.6 °F38 %30.20 in10.0 miNW (320°)12.7 mphClear
4:55 PM32.0 °F8.6 °F38 %30.20 in10.0 miNW (310°)11.5 mph26.5 mphClear
5:15 PM32.0 °F8.6 °F38 %30.18 in10.0 miNNW (340°)10.4 mph16.1 mphClear
5:35 PM28.4 °F10.4 °F47 %30.18 in10.0 miSE (130°)4.6 mphClear
5:55 PM28.4 °F12.2 °F51 %30.19 in10.0 miSSE (160°)5.8 mphClear
6:15 PM26.6 °F10.4 °F51 %30.19 in10.0 miNW (320°)3.5 mphClear
6:35 PM26.6 °F10.4 °F51 %30.19 in10.0 miSouth (170°)3.5 mphClear
6:55 PM23.0 °F12.2 °F63 %30.19 in10.0 miSouth (170°)5.8 mphClear
7:15 PM26.6 °F8.6 °F47 %30.18 in10.0 miSW (220°)6.9 mphClear
7:35 PM23.0 °F10.4 °F59 %30.18 in10.0 miSW (230°)4.6 mphClear
7:55 PM26.6 °F8.6 °F47 %30.18 in10.0 miSSW (210°)5.8 mphClear
8:15 PM24.8 °F10.4 °F54 %30.19 in10.0 miSouth (170°)5.8 mphClear
8:35 PM26.6 °F10.4 °F51 %30.19 in10.0 miSSE (150°)6.9 mphClear
8:55 PM23.0 °F10.4 °F59 %30.19 in10.0 miSSE (150°)8.1 mphClear
9:15 PM19.4 °F12.2 °F74 %30.19 in10.0 miSouth (180°)6.9 mphClear
9:35 PM21.2 °F10.4 °F63 %30.19 in10.0 miSouth (180°)4.6 mphClear
9:55 PM19.4 °F10.4 °F68 %30.19 in10.0 miSSW (200°)6.9 mphClear
10:15 PM19.4 °F10.4 °F68 %30.19 in10.0 miCalmClear
10:35 PM19.4 °F10.4 °F68 %30.18 in10.0 miSSE (150°)8.1 mphClear
10:55 PM19.4 °F10.4 °F68 %30.18 in10.0 miCalmClear
11:15 PM21.2 °F10.4 °F63 %30.19 in10.0 miSE (130°)10.4 mphClear
11:35 PM19.4 °F10.4 °F68 %30.17 in10.0 miEast (100°)4.6 mphClear
11:55 PM21.2 °F10.4 °F63 %30.16 in10.0 miSE (130°)5.8 mphClear
Hourly data recorded from KTRK, located miles away from Alpine Meadows, California







STORIES FROM OUR PARTNERS